Louisville, KY

10:34 AM EDT on August 23, 2017 (GMT -0400)
Louisville International-Standiford

Weather History for KSDF - April, 2014

Change the Weather History Date:

Thursday, April 24, 2014

  Actual Average Record
Temperature  
Mean Temperature 63 °F 61 °F  
Max Temperature 75 °F 72 °F 91 °F (1960)
Min Temperature 51 °F 50 °F 33 °F (1910)
Degree Days  
Heating Degree Days 2 6  
Month to date heating degree days 172 215  
Since 1 July heating degree days 4474 3994  
Cooling Degree Days 0 2  
Month to date cooling degree days 24 29  
Year to date cooling degree days 24 35  
Growing Degree Days 13 (Base 50)    
Moisture  
Dew Point 37 °F    
Average Humidity 41    
Maximum Humidity 54    
Minimum Humidity 28    
Precipitation  
Precipitation T in 0.15 in 2.34 in (1966)
Month to date precipitation 4.62 3.11  
Year to date precipitation 13.08 13.70  
Snow  
Snow 0.00 in 0.00 in T in (1910)
Month to date snowfall 0.1 0.1  
Since 1 July snowfall 26.0 12.5  
Snow Depth 0.00 in    
Sea Level Pressure  
Sea Level Pressure 29.93 in    
Wind  
Wind Speed 9 mph (ESE)    
Max Wind Speed 18 mph    
Max Gust Speed 24 mph    
Visibility 10 miles    
Events      
T = Trace of Precipitation, MM = Missing Value Source: NWS Daily Summary

Daily Weather History Graph

Daily Weather History Graph

Search for Another Location

Airport or City:

Trip Planner

Search our weather history database for the weather conditions in past years. The results will help you decide how hot, cold, wet, or windy it might be!

Date:

Astronomy

Apr. 24, 2014 Rise Set
Actual Time 6:55 AM EDT 8:27 PM EDT
Civil Twilight 6:27 AM EDT 8:55 PM EDT
Nautical Twilight 5:53 AM EDT 9:29 PM EDT
Astronomical Twilight 5:18 AM EDT 10:04 PM EDT
Moon 4:01 AM EDT (4/24) 3:46 PM EDT (4/24)
Length of Visible Light 14h 28m
Length of Day
13h 32m
Waning Crescent, 24% of the Moon is Illuminated
Apr 24
Waning Crescent
Apr 29
New
May 6
First Quarter
May 14
Full
May 21
Last Quarter

Hourly Weather History & Observations

Time (EDT) Temp. Dew Point Humidity Pressure Visibility Wind Dir Wind Speed Gust Speed Precip Events Conditions
12:56 AM 55.9 °F 32.0 °F 40% 30.04 in 10.0 mi ENE 8.1 mph - N/A   Mostly Cloudy
1:56 AM 55.0 °F 32.0 °F 42% 30.03 in 10.0 mi East 6.9 mph - N/A   Mostly Cloudy
2:56 AM 54.0 °F 34.0 °F 47% 30.03 in 10.0 mi East 6.9 mph - N/A   Mostly Cloudy
3:56 AM 53.1 °F 34.0 °F 48% 30.02 in 10.0 mi ESE 9.2 mph - N/A   Mostly Cloudy
4:56 AM 52.0 °F 34.0 °F 50% 30.03 in 10.0 mi ESE 5.8 mph - N/A   Mostly Cloudy
5:56 AM 52.0 °F 34.0 °F 50% 30.02 in 10.0 mi East 8.1 mph - N/A   Overcast
6:56 AM 51.1 °F 35.1 °F 54% 30.03 in 10.0 mi East 6.9 mph - N/A   Overcast
7:56 AM 52.0 °F 35.1 °F 53% 30.04 in 10.0 mi East 10.4 mph - N/A   Overcast
8:56 AM 53.1 °F 35.1 °F 50% 30.06 in 10.0 mi East 9.2 mph - N/A   Overcast
9:56 AM 55.0 °F 36.0 °F 49% 30.05 in 10.0 mi ESE 10.4 mph - N/A   Overcast
10:56 AM 57.9 °F 37.0 °F 46% 30.05 in 10.0 mi SE 13.8 mph - N/A   Overcast
11:56 AM 63.0 °F 37.9 °F 40% 30.01 in 10.0 mi SE 17.3 mph 21.9 mph N/A   Mostly Cloudy
12:56 PM 66.0 °F 37.0 °F 34% 29.97 in 10.0 mi East 13.8 mph - N/A   Mostly Cloudy
1:56 PM 69.1 °F 36.0 °F 30% 29.94 in 10.0 mi ESE 8.1 mph - N/A   Mostly Cloudy
2:56 PM 71.1 °F 37.0 °F 29% 29.91 in 10.0 mi SSE 8.1 mph 18.4 mph N/A   Mostly Cloudy
3:56 PM 72.0 °F 37.9 °F 29% 29.88 in 10.0 mi ESE 11.5 mph 16.1 mph N/A   Mostly Cloudy
4:56 PM 73.0 °F 39.0 °F 29% 29.85 in 10.0 mi SE 10.4 mph - N/A   Mostly Cloudy
5:56 PM 73.9 °F 39.9 °F 29% 29.81 in 10.0 mi ESE 11.5 mph - N/A   Mostly Cloudy
6:56 PM 75.0 °F 41.0 °F 29% 29.79 in 10.0 mi SE 10.4 mph - N/A   Mostly Cloudy
7:56 PM 71.1 °F 41.0 °F 34% 29.77 in 10.0 mi ESE 8.1 mph - N/A   Scattered Clouds
8:56 PM 70.0 °F 42.1 °F 36% 29.77 in 10.0 mi ESE 8.1 mph - N/A   Overcast
9:56 PM 69.1 °F 41.0 °F 36% 29.75 in 10.0 mi ESE 10.4 mph - N/A   Mostly Cloudy
10:56 PM 66.0 °F 42.1 °F 42% 29.73 in 10.0 mi ESE 6.9 mph - N/A   Mostly Cloudy
11:56 PM 64.9 °F 43.0 °F 45% 29.72 in 10.0 mi SE 5.8 mph - N/A   Mostly Cloudy